Regional Weather Roundup
Issued by NWS Little Rock, AR

Home | Current Version | Previous Version | Graphics & Text | Print | Product List | Glossary On
Versions: 1 2 3 4 5 6 7 8 9 10 11 12 13 14 15 16 17 18 19 20 21 22 23 24 25 26 27 28 29 30 31 32 33 34 35 36 37 38 39 40 41 42 43 44 45 46 47 48 49 50
000
ASUS44 KLZK 291505
RWRLZK

WEATHER ROUNDUP FOR ARKANSAS
NATIONAL WEATHER SERVICE LITTLE ROCK AR
1000 AM CDT SAT AUG 29 2015

NOTE: "FAIR" INDICATES FEW OR NO CLOUDS BELOW 12,000 FEET WITH NO
SIGNIFICANT WEATHER AND/OR OBSTRUCTIONS TO VISIBILITY.

ARZ001-003-010-029-291600-
NORTHWEST ARKANSAS

CITY           SKY/WX    TMP DP  RH WIND       PRES   REMARKS
FAYETTEVILLE   SUNNY     77  65  66 S12       30.04R
FORT SMITH     PTSUNNY   75  65  70 E8        30.01F
BENTONVILLE    SUNNY     77  61  57 S8G16     30.04R
ROGERS         SUNNY     78  64  61 S13       30.04S
SILOAM SPGS    SUNNY     77  63  61 S15       30.01S
HIGHFILL       SUNNY     77  66  68 S13       30.03S
SPRINGDALE     SUNNY     77  63  61 S10       30.06R
$$

ARZ004-005-016-291600-
NORTH CENTRAL ARKANSAS

CITY           SKY/WX    TMP DP  RH WIND       PRES   REMARKS
BATESVILLE     CLOUDY    75  66  73 CALM      30.08R
FLIPPIN        CLOUDY    66  61  82 E3        30.07R
MTN HOME       CLOUDY    65  62  90 S3        30.08R
$$

ARZ040-041-291600-
WEST CENTRAL ARKANSAS

CITY           SKY/WX    TMP DP  RH WIND       PRES   REMARKS
MENA           CLOUDY    72  68  88 CALM      30.06F
MOUNT IDA      CLOUDY    70  67  90 SE5       30.04F
$$

ARZ009-017-025-026-028-291600-
NORTHEAST ARKANSAS

CITY           SKY/WX    TMP DP  RH WIND       PRES   REMARKS
JONESBORO      MOSUNNY   78  68  71 SW10      30.07R
NEWPORT        PTSUNNY   79  70  74 CALM      30.08R
WALNUT RIDGE   PTSUNNY   79  66  65 CALM      30.07R
BLYTHEVILLE    SUNNY     82  73  74 S12       30.07S HX  87
$$

ARZ022-023-033-042-044-291600-
CENTRAL ARKANSAS

CITY           SKY/WX    TMP DP  RH WIND       PRES   REMARKS
LITTLE ROCK    CLOUDY    78  62  57 W5        30.06R
N LITTLE ROCK  PTSUNNY   76  65  67 SW5       30.06R
JACKSONVILLE   CLOUDY    78  62  57 S6        30.06R
SEARCY         CLOUDY    79  67  66 VRB3      30.08R
HOT SPRINGS    CLOUDY    75  65  70 CALM      30.06F
RUSSELLVILLE   PTSUNNY   70  67  90 VRB3      30.05R
$$

ARZ036-291600-
EAST ARKANSAS

CITY           SKY/WX    TMP DP  RH WIND       PRES   REMARKS
WEST MEMPHIS   SUNNY     81  73  76 S8        30.06R HX  86
$$

ARZ050-053-066-070-073-291600-
SOUTHWEST ARKANSAS

CITY           SKY/WX    TMP DP  RH WIND       PRES   REMARKS
ARKADELPHIA    FAIR      77  67  71 NW3       30.06S
CAMDEN         CLOUDY    81  64  57 SW5       30.06R
TEXARKANA      CLOUDY    77  66  68 SW7       30.06R
EL DORADO      MOSUNNY   80  66  62 S3        30.07R
DE QUEEN       CLOUDY    74  69  85 E3        30.03S
$$

ARZ056-057-069-291600-
SOUTHEAST ARKANSAS

CITY           SKY/WX    TMP DP  RH WIND       PRES   REMARKS
PINE BLUFF     MOSUNNY   78  64  61 S6        30.07R
STUTTGART      MOSUNNY   81  66  61 S8        30.06S
MONTICELLO     MOSUNNY   84  64  50 SW6       30.07R HX  85

$$




USA.gov is the U.S. government's official web portal to all federal, state and local government web resources and services.